Joplin, MO

4:12 PM CDT on September 16, 2019 (GMT -0500)
Joplin Regional

Weather History for KJLN - August, 2019

Change the Weather History Date:

Sunday, August 25, 2019

  Actual Average Record
Temperature  
Mean Temperature 74 °F 79 °F  
Max Temperature 81 °F 90 °F 101 °F (1983)
Min Temperature 66 °F 67 °F 53 °F (1958)
Degree Days  
Heating Degree Days 0 0  
Month to date heating degree days 0 0  
Since 1 June heating degree days 1 5  
Since 1 July heating degree days 0 0  
Cooling Degree Days 8 14  
Month to date cooling degree days 346 382  
Year to date cooling degree days 1197 1353  
Since 1 June cooling degree days 1044 1173  
Growing Degree Days 24 (Base 50)    
Moisture  
Dew Point 69 °F    
Average Humidity 91    
Maximum Humidity 100    
Minimum Humidity 72    
Precipitation  
Precipitation 0.30 in 0.12 in 1.50 in (1978)
Month to date precipitation 4.93 2.60  
Year to date precipitation 47.84 30.22  
Sea Level Pressure  
Sea Level Pressure 29.87 in    
Wind  
Wind Speed 5 mph ()    
Max Wind Speed 20 mph    
Max Gust Speed 25 mph    
Visibility 7.3 miles    
Events Rain , Thunderstorm    
T = Trace of Precipitation, MM = Missing Value Source: Averaged Metar Reports

Daily Weather History Graph

Daily Weather History Graph

Search for Another Location

Airport or City:

Astronomy

Aug. 25, 2019 Rise Set
Actual Time 6:42 AM CDT 7:56 PM CDT
Civil Twilight 6:15 AM CDT 8:23 PM CDT
Nautical Twilight 5:43 AM CDT 8:55 PM CDT
Astronomical Twilight 5:09 AM CDT 9:29 PM CDT
Moon 1:22 AM CDT (8/25) 4:13 PM CDT (8/25)
Length of Visible Light 14h 08m
Length of Day
13h 14m
Waning Crescent, 29% of the Moon is Illuminated
Aug 25
Waning Crescent
Aug 30
New
Sep 5
First Quarter
Sep 13
Full
Sep 21
Last Quarter

Hourly Weather History & Observations

Time (CDT) Temp. Dew Point Humidity Pressure Visibility Wind Dir Wind Speed Gust Speed Precip Events Conditions
12:53 AM 70.0 °F 68.0 °F 93% 29.96 in 10.0 mi ESE 9.2 mph - N/A   Overcast
1:53 AM 70.0 °F 66.9 °F 90% 29.94 in 10.0 mi SE 8.1 mph 19.6 mph N/A   Overcast
2:53 AM 70.0 °F 68.0 °F 93% 29.94 in 10.0 mi SSE 8.1 mph - N/A   Overcast
3:53 AM 70.0 °F 68.0 °F 93% 29.92 in 10.0 mi SE 5.8 mph - N/A   Overcast
4:53 AM 70.0 °F 69.1 °F 97% 29.91 in 10.0 mi SE 5.8 mph - N/A   Overcast
5:53 AM 71.1 °F 69.1 °F 93% 29.89 in 10.0 mi SE 10.4 mph - N/A   Overcast
6:53 AM 71.1 °F 69.1 °F 93% 29.89 in 10.0 mi SE 5.8 mph - N/A   Overcast
7:53 AM 73.0 °F 70.0 °F 90% 29.89 in 10.0 mi SSE 8.1 mph - N/A   Overcast
8:53 AM 73.9 °F 71.1 °F 91% 29.90 in 10.0 mi SSW 6.9 mph - N/A   Mostly Cloudy
9:21 AM 69.1 °F 64.9 °F 87% 29.94 in 10.0 mi NW 9.2 mph - N/A   Overcast
9:53 AM 69.1 °F 66.0 °F 90% 29.91 in 2.5 mi Calm Calm - 0.04 in Rain Rain
9:58 AM 68.0 °F 66.0 °F 93% 29.93 in 2.0 mi NNW 3.5 mph - 0.04 in Rain , Thunderstorm Heavy Rain
10:14 AM 69.1 °F 66.9 °F 93% 29.92 in 3.0 mi WNW 5.8 mph - 0.10 in Rain Light Rain
10:53 AM 66.9 °F 66.0 °F 97% 29.92 in 3.0 mi WNW 9.2 mph 18.4 mph 0.14 in Rain Rain
11:06 AM 66.9 °F 66.0 °F 97% 29.94 in 3.0 mi NW 4.6 mph - 0.06 in Rain Heavy Rain
11:20 AM 66.9 °F 66.0 °F 97% 29.94 in 3.0 mi ESE 3.5 mph - 0.09 in Rain , Thunderstorm Heavy Rain
11:33 AM 68.0 °F 66.0 °F 93% 29.92 in 8.0 mi East 5.8 mph - 0.10 in Rain Light Rain
11:53 AM 68.0 °F 66.9 °F 96% 29.89 in 6.0 mi East 6.9 mph - 0.11 in Rain Light Rain
12:53 PM 69.1 °F 68.0 °F 96% 29.86 in 10.0 mi SSE 4.6 mph - 0.01 in Rain Light Rain
1:53 PM 73.0 °F 69.1 °F 87% 29.84 in 10.0 mi SSW 4.6 mph - 0.00 in   Clear
2:53 PM 77.0 °F 70.0 °F 79% 29.83 in 10.0 mi SSW 4.6 mph - N/A   Clear
3:53 PM 79.0 °F 70.0 °F 74% 29.81 in 10.0 mi Calm Calm - N/A   Mostly Cloudy
4:53 PM 79.0 °F 69.1 °F 72% 29.78 in 10.0 mi Calm Calm - N/A   Mostly Cloudy
5:53 PM 79.0 °F 70.0 °F 74% 29.79 in 10.0 mi Variable 4.6 mph - N/A   Mostly Cloudy
6:53 PM 78.1 °F 70.0 °F 76% 29.78 in 10.0 mi Calm Calm - N/A   Scattered Clouds
8:53 PM 73.0 °F 71.1 °F 93% 29.81 in 10.0 mi Calm Calm - N/A   Mostly Cloudy
9:53 PM 72.0 °F 71.1 °F 97% 29.82 in 10.0 mi Calm Calm - N/A   Scattered Clouds
10:53 PM 71.1 °F 70.0 °F 96% 29.82 in 9.0 mi Calm Calm - N/A   Partly Cloudy
11:27 PM 71.1 °F 70.0 °F 96% 29.84 in 1.8 mi Calm Calm - N/A   Scattered Clouds
11:36 PM 73.0 °F 70.0 °F 90% 29.84 in 3.0 mi Calm Calm - N/A   Mostly Cloudy
11:51 PM 71.6 °F 69.8 °F 94% 29.83 in 1.8 mi Calm Calm - N/A   Mostly Cloudy
11:53 PM 71.1 °F 70.0 °F 96% 29.81 in 1.8 mi Calm Calm - N/A   Mostly Cloudy
11:59 PM 70.0 °F 70.0 °F 100% 29.83 in 3.0 mi Calm Calm - N/A   Scattered Clouds